Flag for Romania Weather past 2 weeks in Iasi, Romania

Now
63 °F

Sunny.


Feels Like: 63 °F
Forecast: 48 / 72 °F
Wind: 9 mph from North

Location: Iasi Airport

Current Time: Sep 16, 2014 at 8:38:57 PM

Latest Report: Sep 16, 2014 at 8:00 PM


Visibility: 10 mi

Pressure: 30.15 "Hg

Humidity: 49%

Dew point: 43 °F

Location of IasiLocation

Historic Weather in Iasi — Graph

°F

Iasi temperature yesterday

Maximum temperature yesterday: 82 °F (at 1:30 PM)
Minimum temperature yesterday: 59 °F (at 5:00 AM)
Average temperature yesterday: 71 °F

Past Weeks' High & Low Weather Summary

 TemperatureHumidityPressure
High90 °F (Sep 3, 3:00 PM)100% (Sep 2, 5:00 AM)30.21 "Hg (Sep 2, 5:00 AM)
Low46 °F (Sep 6, 6:30 AM)24% (Sep 3, 3:30 PM)29.86 "Hg (Sep 1, 7:30 PM)
Average70 °F54%30.02 "Hg
* Reported Sep 1 7:00 PM — Sep 16 7:30 PM, Iasi, Weather by CustomWeather, © 2014

Note: Actual official high and low records may vary slightly from our data, if they occured in-between our weather recording intervals... More about our weather records

Advertising

Iasi weather history for previous 24 hours

 ConditionsComfort  
Time TempWeatherWind HumidityBarometerVisibility
7:30 PM
Sep 16
64 °FSunny.7 mph46%30.15 "Hg10 mi
7:00 PM66 °FSunny.7 mph43%30.15 "Hg10 mi
6:30 PM68 °FSunny.9 mph40%30.15 "Hg10 mi
6:00 PM70 °FSunny.9 mph38%30.12 "Hg10 mi
5:30 PM70 °FPassing clouds.9 mph38%30.12 "HgN/A
5:00 PM72 °FSunny.12 mph36%30.12 "Hg10 mi
4:30 PM72 °FSunny.12 mph38%30.12 "Hg10 mi
4:00 PM72 °FPassing clouds.12 mph38%30.15 "HgN/A
3:30 PM70 °FPassing clouds.9 mph40%30.15 "HgN/A
3:00 PM70 °FPassing clouds.9 mph40%30.15 "HgN/A
2:30 PM70 °FPassing clouds.14 mph40%30.15 "HgN/A
2:00 PM70 °FPassing clouds.7 mph40%30.18 "HgN/A
1:30 PM70 °FPassing clouds.9 mph40%30.18 "HgN/A
1:00 PM70 °FPassing clouds.12 mph40%30.18 "HgN/A
12:00 PM66 °FSunny.12 mph49%30.18 "Hg10 mi
11:30 AM66 °FPassing clouds.7 mph49%30.18 "HgN/A
11:00 AM64 °FSunny.5 mph52%30.21 "Hg10 mi
10:30 AM63 °FPassing clouds.5 mph56%30.21 "HgN/A
10:00 AM61 °FPassing clouds.7 mph59%30.21 "HgN/A
9:30 AM59 °FSunny.9 mph63%30.18 "Hg10 mi
9:00 AM57 °FSunny.7 mph67%30.18 "Hg10 mi
8:30 AM55 °FSunny.9 mph67%30.18 "Hg10 mi
8:00 AM54 °FSunny.9 mph72%30.18 "Hg10 mi
7:30 AM54 °FClear.9 mph72%30.18 "Hg10 mi
7:00 AM52 °FClear.9 mph77%30.18 "Hg10 mi
6:30 AM52 °FPassing clouds.5 mph77%30.18 "HgN/A
6:00 AM54 °FClear.9 mph72%30.18 "Hg10 mi
5:30 AM54 °FClear.7 mph72%30.18 "Hg10 mi
5:00 AM55 °FClear.7 mph67%30.18 "Hg10 mi
4:00 AM57 °FClear.7 mph59%30.15 "Hg10 mi
3:00 AM59 °FClear.7 mph55%30.15 "Hg10 mi
2:00 AM63 °FClear.7 mph49%30.12 "Hg10 mi
1:00 AM63 °FClear.9 mph49%30.12 "Hg10 mi
12:00 AM64 °FClear.9 mph43%30.12 "Hg10 mi
11:00 PM
Sep 15
68 °FClear.12 mph40%30.09 "Hg10 mi
10:00 PM70 °FClear.12 mph46%30.09 "Hg10 mi
9:00 PM72 °FClear.12 mph44%30.07 "Hg10 mi
8:30 PM72 °FClear.9 mph44%30.07 "Hg10 mi
8:00 PM72 °FSunny.9 mph44%30.07 "Hg10 mi
Weather by CustomWeather, © 2014

See weather overviewHow to use our weather pages